Weather History for Auckland, New Zealand

Change the Weather History Date:

Monday, March 18, 2013

  Actual Average Record
Temperature  
Mean Temperature 73 °F -  
Max Temperature 78 °F 70 °F 78 °F (2013)
Min Temperature 68 °F 58 °F 57 °F (2001)
Cooling Degree Days 8    
Growing Degree Days 23 (Base 50)    
Moisture  
Dew Point 67 °F    
Average Humidity 85    
Maximum Humidity 100    
Minimum Humidity 61    
Precipitation  
Precipitation 0.00 in - - ()
Sea Level Pressure  
Sea Level Pressure 29.57 in    
Wind  
Wind Speed 12 mph ()    
Max Wind Speed 20 mph    
Max Gust Speed 28 mph    
Visibility 5.7 miles    
Events Rain    
Averages and records for this station are not official NWS values.
T = Trace of Precipitation, MM = Missing Value Source: Averaged Metar Reports

Daily Weather History Graph

Daily Weather History Graph

Search for Another Location

Airport:

Trip Planner

Search our weather history database for the weather conditions in past years. The results will help you decide how hot, cold, wet, or windy it might be!

Date:

Astronomy

Mar. 18, 2013 Rise Set
Actual Time 7:21 AM NZDT 7:35 PM NZDT
Civil Twilight 6:55 AM NZDT 8:01 PM NZDT
Nautical Twilight 6:25 AM NZDT 8:31 PM NZDT
Astronomical Twilight 5:54 AM NZDT 9:02 PM NZDT
Moon 1:11 PM NZDT (3/18) 11:22 PM NZDT (3/18)
Length of Visible Light 13h 05m
Length of Day
12h 14m
Waxing Crescent, 34% of the Moon is Illuminated
Mar 18
Waxing Crescent
Mar 20
First Quarter
Mar 27
Full
Apr 3
Last Quarter
Apr 10
New

Hourly Weather History & Observations

Time (NZDT) Temp. Dew Point Humidity Pressure Visibility Wind Dir Wind Speed Gust Speed Precip Events Conditions
12:00 AM 69.8 °F 69.8 °F 100% 29.53 in 1.6 mi North 12.7 mph - N/A Rain Rain
1:00 AM 69.8 °F 69.8 °F 100% 29.53 in 1.9 mi NNW 11.5 mph - N/A Rain Rain
2:00 AM 69.8 °F 69.8 °F 100% 29.53 in 1.9 mi NNW 11.5 mph - N/A Rain Rain
3:00 AM 69.8 °F 69.8 °F 100% 29.53 in 6.2 mi NW 13.8 mph - N/A   Mostly Cloudy
4:00 AM 69.8 °F 68.0 °F 94% 29.53 in 6.2 mi NW 15.0 mph - N/A   Overcast
5:00 AM 69.8 °F 68.0 °F 94% 29.53 in 6.2 mi WNW 11.5 mph - N/A   Overcast
6:00 AM 69.8 °F 68.0 °F 94% 29.56 in 6.2 mi NW 8.1 mph - N/A   Mostly Cloudy
7:00 AM 68.0 °F 68.0 °F 100% 29.56 in 6.2 mi NW 9.2 mph - N/A   Mostly Cloudy
8:00 AM 68.0 °F 68.0 °F 100% 29.59 in 6.2 mi NW 6.9 mph - N/A   Mostly Cloudy
9:00 AM 69.8 °F 68.0 °F 94% 29.59 in 6.2 mi NNW 6.9 mph - N/A   Mostly Cloudy
10:00 AM 71.6 °F 69.8 °F 94% 29.59 in 6.2 mi WNW 11.5 mph - N/A   Mostly Cloudy
11:00 AM 71.6 °F 68.0 °F 88% 29.62 in 6.2 mi WNW 11.5 mph - N/A   Mostly Cloudy
12:00 PM 71.6 °F 68.0 °F 88% 29.62 in 6.2 mi WNW 12.7 mph - N/A   Mostly Cloudy
1:00 PM 77.0 °F 66.2 °F 69% 29.59 in 6.2 mi West 16.1 mph - N/A   Overcast
2:00 PM 78.8 °F 66.2 °F 65% 29.59 in 6.2 mi WNW 16.1 mph 27.6 mph N/A   Mostly Cloudy
3:00 PM 78.8 °F 64.4 °F 61% 29.59 in 6.2 mi West 16.1 mph - N/A   Mostly Cloudy
4:00 PM 77.0 °F 62.6 °F 61% 29.56 in 6.2 mi WNW 16.1 mph - N/A   Mostly Cloudy
5:00 PM 75.2 °F 62.6 °F 65% 29.56 in 6.2 mi WNW 16.1 mph - N/A   Mostly Cloudy
6:00 PM 73.4 °F 62.6 °F 69% 29.56 in 6.2 mi NW 18.4 mph - N/A   Mostly Cloudy
7:00 PM 73.4 °F 64.4 °F 73% 29.56 in 6.2 mi NW 19.6 mph - N/A   Scattered Clouds
8:00 PM 71.6 °F 64.4 °F 78% 29.56 in 6.2 mi NW 18.4 mph - N/A Rain Rain Showers
9:00 PM 69.8 °F 64.4 °F 83% 29.56 in 6.2 mi NW 18.4 mph - N/A   Mostly Cloudy
10:00 PM 69.8 °F 64.4 °F 83% 29.59 in 6.2 mi NW 17.3 mph - N/A   Mostly Cloudy
11:00 PM 69.8 °F 62.6 °F 78% 29.56 in 6.2 mi NNW 13.8 mph - N/A   Scattered Clouds